Weather History for Sanford, NC

Change the Weather History Date:

Friday, December 6, 2013

  Actual Average (KRDU) Record (KRDU)
Temperature  
Mean Temperature 72 °F 46 °F  
Max Temperature 78 °F 56 °F 80 °F (1998)
Min Temperature 65 °F 35 °F 19 °F (1969)
Degree Days  
Heating Degree Days 0 19  
Month to date heating degree days 111  
Since 1 July heating degree days 692  
Cooling Degree Days 6 0  
Month to date cooling degree days 0  
Year to date cooling degree days 1728  
Growing Degree Days 22 (Base 50)    
Moisture  
Dew Point 62 °F    
Average Humidity 75    
Maximum Humidity 91    
Minimum Humidity 55    
Precipitation  
Precipitation 0.00 in 0.10 in 2.12 in (1983)
Month to date precipitation 0.61  
Year to date precipitation 40.88  
Snow  
Snow 0.00 in 0.00 in 2.40 in (1954)
Month to date snowfall 0.0  
Since 1 July snowfall 0.1  
Snow Depth -    
Sea Level Pressure  
Sea Level Pressure 30.03 in    
Wind  
Wind Speed 9 mph (South)    
Max Wind Speed 20 mph    
Max Gust Speed 28 mph    
Visibility 10 miles    
Events      
T = Trace of Precipitation, MM = Missing Value Source: NWS Daily Summary

Daily Weather History Graph

Daily Weather History Graph

Search for Another Location

Airport:

Trip Planner

Search our weather history database for the weather conditions in past years. The results will help you decide how hot, cold, wet, or windy it might be!

Date:

Astronomy

Dec. 06, 2013 Rise Set
Actual Time 7:11 AM EST 5:03 PM EST
Civil Twilight 6:43 AM EST 5:31 PM EST
Nautical Twilight 6:12 AM EST 6:02 PM EST
Astronomical Twilight 5:41 AM EST 6:33 PM EST
Moon 10:20 AM EST (12/6) 9:27 PM EST (12/6)
Length of Visible Light 10h 47m
Length of Day
9h 51m
Waxing Crescent, 19% of the Moon is Illuminated
Dec 6
Waxing Crescent
Dec 9
First Quarter
Dec 17
Full
Dec 25
Last Quarter
Jan 1
New

Hourly Weather History & Observations

Time (EST) Temp. Dew Point Humidity Pressure Visibility Wind Dir Wind Speed Gust Speed Precip Events Conditions
12:15 AM 67.6 °F 64.6 °F 90% 30.06 in 10.0 mi SSW 6.9 mph - N/A   Overcast
12:35 AM 67.3 °F 64.4 °F 90% 30.05 in 10.0 mi South 5.8 mph - N/A   Mostly Cloudy
12:55 AM 66.7 °F 64.0 °F 91% 30.04 in 10.0 mi South 5.8 mph - N/A   Scattered Clouds
1:15 AM 67.3 °F 64.2 °F 90% 30.03 in 10.0 mi South 5.8 mph - N/A   Overcast
1:35 AM 67.6 °F 63.5 °F 87% 30.02 in 10.0 mi South 9.2 mph - N/A   Mostly Cloudy
1:55 AM 68.0 °F 63.3 °F 85% 30.04 in 10.0 mi SSW 11.5 mph 16.1 mph N/A   Overcast
2:15 AM 68.4 °F 63.3 °F 84% 30.03 in 10.0 mi SSW 9.2 mph - N/A   Overcast
2:35 AM 68.2 °F 63.1 °F 84% 30.03 in 10.0 mi SSW 10.4 mph - N/A   Overcast
2:55 AM 68.4 °F 63.1 °F 83% 30.03 in 10.0 mi SSW 11.5 mph 16.1 mph N/A   Overcast
3:15 AM 68.0 °F 63.0 °F 84% 30.03 in 10.0 mi SSW 10.4 mph - N/A   Scattered Clouds
3:35 AM 67.6 °F 63.0 °F 85% 30.03 in 10.0 mi SSW 10.4 mph - N/A   Clear
3:55 AM 67.5 °F 62.6 °F 84% 30.03 in 10.0 mi SSW 8.1 mph - N/A   Scattered Clouds
4:15 AM 67.1 °F 62.6 °F 85% 30.03 in 10.0 mi South 8.1 mph - N/A   Scattered Clouds
4:35 AM 67.3 °F 62.6 °F 85% 30.04 in 10.0 mi SSW 6.9 mph - N/A   Scattered Clouds
4:55 AM 67.1 °F 62.6 °F 85% 30.04 in 10.0 mi SSW 8.1 mph - N/A   Clear
5:15 AM 66.4 °F 62.1 °F 86% 30.03 in 10.0 mi South 5.8 mph - N/A   Clear
5:35 AM 66.0 °F 61.9 °F 86% 30.03 in 10.0 mi South 8.1 mph - N/A   Clear
5:55 AM 66.0 °F 61.9 °F 86% 30.04 in 10.0 mi South 6.9 mph - N/A   Clear
6:15 AM 65.7 °F 61.9 °F 88% 30.05 in 10.0 mi SSW 6.9 mph - N/A   Scattered Clouds
6:35 AM 65.5 °F 61.7 °F 88% 30.05 in 10.0 mi South 6.9 mph - N/A   Clear
6:55 AM 65.3 °F 61.7 °F 88% 30.05 in 10.0 mi South 6.9 mph - N/A   Clear
7:15 AM 65.3 °F 61.5 °F 88% 30.05 in 10.0 mi South 8.1 mph - N/A   Clear
7:35 AM 65.5 °F 61.7 °F 88% 30.06 in 10.0 mi South 8.1 mph - N/A   Clear
7:55 AM 66.2 °F 61.7 °F 85% 30.06 in 10.0 mi South 6.9 mph - N/A   Clear
8:15 AM 67.3 °F 62.1 °F 83% 30.07 in 10.0 mi South 8.1 mph - N/A   Clear
8:35 AM 67.5 °F 62.1 °F 83% 30.08 in 10.0 mi South 6.9 mph - N/A   Clear
8:55 AM 68.2 °F 62.1 °F 81% 30.09 in 10.0 mi SSW 10.4 mph - N/A   Clear
9:15 AM 69.6 °F 62.1 °F 77% 30.09 in 10.0 mi SSW 9.2 mph - N/A   Clear
9:35 AM 71.1 °F 62.2 °F 74% 30.09 in 10.0 mi SSW 11.5 mph 17.3 mph N/A   Clear
9:55 AM 72.5 °F 62.4 °F 71% 30.09 in 10.0 mi South 12.7 mph 20.7 mph N/A   Clear
10:15 AM 73.4 °F 62.2 °F 68% 30.09 in 10.0 mi South 13.8 mph 19.6 mph N/A   Clear
10:35 AM 73.8 °F 62.2 °F 67% 30.09 in 10.0 mi SSW 11.5 mph 20.7 mph N/A   Clear
10:55 AM 75.2 °F 62.6 °F 65% 30.09 in 10.0 mi SSW 16.1 mph 23.0 mph N/A   Clear
11:15 AM 76.1 °F 62.1 °F 62% 30.08 in 10.0 mi SSW 17.3 mph 26.5 mph N/A   Clear
11:35 AM 76.5 °F 62.1 °F 61% 30.08 in 10.0 mi SSW 9.2 mph 23.0 mph N/A   Clear
11:55 AM 77.4 °F 61.5 °F 58% 30.07 in 10.0 mi SSW 18.4 mph 26.5 mph N/A   Clear
12:15 PM 77.9 °F 61.2 °F 56% 30.06 in 10.0 mi SW 11.5 mph 24.2 mph N/A   Scattered Clouds
12:35 PM 78.1 °F 60.8 °F 55% 30.05 in 10.0 mi SSW 17.3 mph 25.3 mph N/A   Scattered Clouds
12:55 PM 78.1 °F 60.6 °F 55% 30.04 in 10.0 mi SSW 19.6 mph 27.6 mph N/A   Clear
1:15 PM 78.4 °F 61.0 °F 55% 30.03 in 10.0 mi SSW 15.0 mph 23.0 mph N/A   Clear
1:35 PM 78.4 °F 61.3 °F 56% 30.01 in 10.0 mi SSW 10.4 mph 18.4 mph N/A   Scattered Clouds
1:55 PM 78.8 °F 61.3 °F 55% 30.01 in 10.0 mi South 13.8 mph 21.9 mph N/A   Scattered Clouds
2:15 PM 78.3 °F 61.3 °F 56% 30.00 in 10.0 mi South 15.0 mph 27.6 mph N/A   Unknown
2:35 PM 78.4 °F 61.2 °F 55% 30.00 in 10.0 mi SSW 13.8 mph 24.2 mph N/A   Clear
2:55 PM 78.3 °F 61.0 °F 55% 29.99 in 10.0 mi South 16.1 mph 20.7 mph N/A   Clear
3:15 PM 77.9 °F 60.8 °F 56% 29.99 in 10.0 mi South 16.1 mph 25.3 mph N/A   Clear
3:35 PM 77.5 °F 61.2 °F 57% 30.00 in 10.0 mi SSW 11.5 mph 17.3 mph N/A   Clear
3:55 PM 77.2 °F 61.2 °F 58% 30.00 in 10.0 mi SSW 8.1 mph 19.6 mph N/A   Clear
4:15 PM 76.5 °F 61.2 °F 59% 29.99 in 10.0 mi South 6.9 mph - N/A   Clear
4:35 PM 75.6 °F 61.7 °F 62% 30.00 in 10.0 mi South 6.9 mph - N/A   Clear
4:55 PM 74.8 °F 61.7 °F 64% 30.00 in 10.0 mi South 10.4 mph - N/A   Clear
5:15 PM 74.3 °F 61.2 °F 63% 30.00 in 10.0 mi South 6.9 mph - N/A   Clear
5:35 PM 73.4 °F 60.8 °F 65% 30.01 in 10.0 mi South 8.1 mph - N/A   Clear
5:55 PM 72.5 °F 60.8 °F 67% 30.01 in 10.0 mi South 5.8 mph - N/A   Clear
6:55 PM 71.6 °F 61.7 °F 71% 30.01 in 10.0 mi South 9.2 mph - N/A   Clear
7:15 PM 70.9 °F 61.7 °F 73% 30.01 in 10.0 mi South 5.8 mph - N/A   Clear
7:35 PM 70.5 °F 61.9 °F 74% 30.01 in 10.0 mi South 5.8 mph - N/A   Clear
7:55 PM 70.5 °F 62.2 °F 75% 30.01 in 10.0 mi South 6.9 mph - N/A   Clear
8:15 PM 70.7 °F 62.8 °F 76% 30.01 in 10.0 mi South 8.1 mph - N/A   Clear
8:35 PM 70.7 °F 63.0 °F 76% 30.01 in 10.0 mi South 9.2 mph - N/A   Clear
8:55 PM 70.9 °F 63.0 °F 76% 30.01 in 10.0 mi South 11.5 mph - N/A   Clear
9:15 PM 70.7 °F 63.1 °F 77% 30.01 in 10.0 mi South 8.1 mph - N/A   Clear
9:35 PM 70.2 °F 63.5 °F 79% 30.01 in 10.0 mi South 9.2 mph - N/A   Clear
9:55 PM 69.8 °F 63.5 °F 80% 30.01 in 10.0 mi South 8.1 mph - N/A   Clear
10:15 PM 69.8 °F 63.5 °F 80% 30.01 in 10.0 mi South 8.1 mph - N/A   Clear
10:35 PM 69.3 °F 63.7 °F 82% 30.02 in 10.0 mi SSW 9.2 mph - N/A   Clear
10:55 PM 69.3 °F 63.7 °F 82% 30.03 in 10.0 mi South 6.9 mph - N/A   Clear
11:15 PM 69.3 °F 63.9 °F 83% 30.04 in 10.0 mi South 5.8 mph - N/A   Clear
11:35 PM 68.9 °F 64.0 °F 84% 30.04 in 10.0 mi South 6.9 mph - N/A   Clear
11:55 PM 68.9 °F 64.0 °F 84% 30.04 in 10.0 mi South 9.2 mph - N/A   Clear